Weather History for LGTS - November, 2012

Change the Weather History Date:

Tuesday, November 6, 2012

  Actual Average Record
Temperature  
Mean Temperature 66 °F -  
Max Temperature 72 °F 58 °F 72 °F (2012)
Min Temperature 57 °F 43 °F 37 °F (2006)
Growing Degree Days 16 (Base 50)    
Moisture  
Dew Point 59 °F    
Average Humidity 78    
Maximum Humidity 94    
Minimum Humidity 57    
Precipitation  
Precipitation 0.00 in 0.07 in - ()
Sea Level Pressure  
Sea Level Pressure 29.83 in    
Wind  
Wind Speed 3 mph ()    
Max Wind Speed 8 mph    
Max Gust Speed -    
Visibility 5.7 miles    
Events      
Averages and records for this station are not official NWS values.
T = Trace of Precipitation, MM = Missing Value Source: Averaged Metar Reports

Daily Weather History Graph

Daily Weather History Graph

Search for Another Location

Airport or City:

Trip Planner

Search our weather history database for the weather conditions in past years. The results will help you decide how hot, cold, wet, or windy it might be!

Date:

Astronomy

Nov. 06, 2012 Rise Set
Actual Time 7:04 AM EET 5:18 PM EET
Civil Twilight 6:35 AM EET 5:47 PM EET
Nautical Twilight 6:02 AM EET 6:19 PM EET
Astronomical Twilight 5:30 AM EET 6:51 PM EET
Moon 11:38 PM EET (11/6) 12:46 PM EET (11/6)
Length of Visible Light 11h 12m
Length of Day
10h 14m
Waning Gibbous, 56% of the Moon is Illuminated
Nov 6
Waning Gibbous
Nov 7
Last Quarter
Nov 14
New
Nov 20
First Quarter
Nov 28
Full

Hourly Weather History & Observations

Time (EET) Temp. Dew Point Humidity Pressure Visibility Wind Dir Wind Speed Gust Speed Precip Events Conditions
12:20 AM 64.4 °F 55.4 °F 73% 29.80 in 6.2 mi ESE 5.8 mph - N/A   Scattered Clouds
12:50 AM 64.4 °F 55.4 °F 73% 29.80 in 6.2 mi ESE 4.6 mph - N/A   Scattered Clouds
1:20 AM 64.4 °F 55.4 °F 73% 29.80 in 6.2 mi SE 4.6 mph - N/A   Scattered Clouds
1:50 AM 62.6 °F 57.2 °F 82% 29.80 in 6.2 mi Calm Calm - N/A   Scattered Clouds
2:00 AM 63 °F 56 °F 73% 29.81 in 6 mi Calm Calm - -   Scattered Clouds
2:20 AM 66.2 °F 59.0 °F 78% 29.80 in 6.2 mi NW 6.9 mph - N/A   Mostly Cloudy
2:50 AM 64.4 °F 59.0 °F 83% 29.80 in 6.2 mi Calm Calm - N/A   Scattered Clouds
3:20 AM 62.6 °F 57.2 °F 82% 29.77 in 6.2 mi Calm Calm - N/A   Mostly Cloudy
3:50 AM 66.2 °F 59.0 °F 78% 29.77 in 6.2 mi West 4.6 mph - N/A   Mostly Cloudy
4:20 AM 66.2 °F 59.0 °F 78% 29.77 in 6.2 mi West 4.6 mph - N/A   Mostly Cloudy
4:50 AM 64.4 °F 59.0 °F 83% 29.77 in 6.2 mi NW 8.1 mph - N/A   Mostly Cloudy
5:20 AM 64.4 °F 59.0 °F 83% 29.77 in 6.2 mi WSW 4.6 mph - N/A   Scattered Clouds
5:50 AM 62.6 °F 59.0 °F 88% 29.80 in 4.3 mi WNW 5.8 mph - N/A   Scattered Clouds
6:20 AM 62.6 °F 59.0 °F 88% 29.77 in 6.2 mi West 4.6 mph - N/A   Scattered Clouds
6:50 AM 62.6 °F 59.0 °F 88% 29.80 in 4.3 mi WNW 5.8 mph - N/A   Scattered Clouds
7:20 AM 60.8 °F 57.2 °F 88% 29.80 in 3.7 mi Variable 2.3 mph - N/A   Scattered Clouds
7:50 AM 60.8 °F 57.2 °F 88% 29.80 in 3.7 mi Variable 2.3 mph - N/A   Scattered Clouds
8:00 AM 60 °F 57 °F 85% 29.82 in 1 mi 2.3 mph - -   Mist
8:20 AM 62.6 °F 59.0 °F 88% 29.83 in 5.0 mi Calm Calm - N/A   Scattered Clouds
8:50 AM 64.4 °F 59.0 °F 83% 29.83 in 5.0 mi Calm Calm - N/A   Mostly Cloudy
9:20 AM 64.4 °F 59.0 °F 83% 29.83 in 5.0 mi Variable 2.3 mph - N/A   Mostly Cloudy
9:50 AM 66.2 °F 59.0 °F 78% 29.83 in 5.6 mi Variable 2.3 mph - N/A   Mostly Cloudy
10:20 AM 66.2 °F 59.0 °F 78% 29.83 in 5.6 mi Variable 3.5 mph - N/A   Mostly Cloudy
10:50 AM 69.8 °F 59.0 °F 68% 29.83 in 5.6 mi Calm Calm - N/A   Mostly Cloudy
11:20 AM 71.6 °F 60.8 °F 69% 29.83 in 5.6 mi Variable 2.3 mph - N/A   Mostly Cloudy
11:50 AM 68.0 °F 60.8 °F 78% 29.83 in 5.6 mi NW 6.9 mph - N/A   Scattered Clouds
12:20 PM 69.8 °F 60.8 °F 73% 29.83 in 6.2 mi WNW 5.8 mph - N/A   Mostly Cloudy
12:50 PM 71.6 °F 60.8 °F 69% 29.83 in 6.2 mi West 4.6 mph - N/A   Mostly Cloudy
1:20 PM 71.6 °F 60.8 °F 69% 29.83 in 5.6 mi West 4.6 mph - N/A   Mostly Cloudy
1:50 PM 71.6 °F 60.8 °F 69% 29.83 in 6.2 mi Variable 2.3 mph - N/A   Mostly Cloudy
2:00 PM 72 °F 60 °F 57% 29.83 in 6 mi 2.3 mph - -   Scattered Clouds
2:20 PM 71.6 °F 60.8 °F 69% 29.83 in 6.2 mi Variable 3.5 mph - N/A   Mostly Cloudy
2:50 PM 71.6 °F 60.8 °F 69% 29.83 in 6.2 mi NW 4.6 mph - N/A   Mostly Cloudy
3:20 PM 71.6 °F 62.6 °F 73% 29.83 in 6.2 mi Variable 3.5 mph - N/A   Mostly Cloudy
3:50 PM 71.6 °F 62.6 °F 73% 29.80 in 6.2 mi Calm Calm - N/A   Mostly Cloudy
4:20 PM 73.4 °F 59.0 °F 61% 29.80 in 6.2 mi Calm Calm - N/A   Mostly Cloudy
4:50 PM 71.6 °F 60.8 °F 69% 29.83 in 6.2 mi Calm Calm - N/A   Mostly Cloudy
5:20 PM 71.6 °F 59.0 °F 64% 29.83 in 6.2 mi Calm Calm - N/A   Mostly Cloudy
5:50 PM 69.8 °F 59.0 °F 68% 29.86 in 6.2 mi Calm Calm - N/A   Mostly Cloudy
6:20 PM 68.0 °F 59.0 °F 73% 29.86 in 6.2 mi Calm Calm - N/A   Scattered Clouds
6:50 PM 66.2 °F 59.0 °F 78% 29.86 in 6.2 mi Variable 2.3 mph - N/A   Scattered Clouds
7:20 PM 66.2 °F 57.2 °F 73% 29.89 in 6.2 mi Variable 3.5 mph - N/A   Scattered Clouds
7:50 PM 64.4 °F 59.0 °F 83% 29.89 in 6.2 mi Variable 3.5 mph - N/A   Partly Cloudy
8:00 PM 64 °F 58 °F 76% 29.90 in 6 mi 3.5 mph - -   Scattered Clouds
8:20 PM 62.6 °F 57.2 °F 82% 29.89 in 6.2 mi Calm Calm - N/A   Partly Cloudy
8:50 PM 62.6 °F 57.2 °F 82% 29.92 in 6.2 mi Variable 2.3 mph - N/A   Scattered Clouds
9:20 PM 62.6 °F 57.2 °F 82% 29.92 in 6.2 mi Calm Calm - N/A   Partly Cloudy
9:50 PM 62.6 °F 57.2 °F 82% 29.92 in 6.2 mi Calm Calm - N/A   Partly Cloudy
10:20 PM 60.8 °F 57.2 °F 88% 29.92 in - Calm Calm - N/A   Clear
10:50 PM 59.0 °F 55.4 °F 88% 29.92 in - Calm Calm - N/A   Clear
11:20 PM 60.8 °F 55.4 °F 82% 29.92 in - Calm Calm - N/A   Clear
11:50 PM 57.2 °F 55.4 °F 94% 29.95 in - Calm Calm - N/A   Clear